Regional Weather Roundup
Issued by NWS Kansas City/Pleasant Hill, MO

Home | Current Version | Previous Version | Text Only | Print | Product List | Glossary On
Versions: 1 2 3 4 5 6 7 8 9 10 11 12 13 14 15 16 17 18 19 20 21 22 23 24 25 26 27 28 29 30 31 32 33 34 35 36 37 38 39 40 41 42 43 44 45 46 47 48 49 50
000
ASUS43 KEAX 310911
RWREAX

WEATHER ROUNDUP FOR EASTERN KANSAS AND NORTHWEST MISSOURI
NATIONAL WEATHER SERVICE KANSAS CITY/PLEASANT HILL MO
400 AM CDT SUN AUG 31 2014

KSZ040-057-103>105-MOZ028-029-037-043-311000-
...KANSAS CITY METROPOLITAN AREA...

CITY           SKY/WX    TMP DP  RH WIND       PRES   REMARKS
K.C. INTL      CLEAR     70  67  90 S9        29.88F
K.C. DOWNTOWN  CLEAR     74  67  78 S6        29.88S
LEES SUMMIT    CLEAR     73  68  84 S8        29.90S
OLATHE - IXD   CLEAR     70  67  90 S8        29.90S
OLATHE - OJC   CLEAR     69  67  93 S6        29.89S
LAWRENCE       CLEAR     68  64  87 E6        29.87F

$$

MOZ001>008-011>017-020>025-030>033-038>040-044>046-053-054-311000-
...NORTHERN AND CENTRAL MISSOURI...

CITY           SKY/WX    TMP DP  RH WIND       PRES   REMARKS
ST. JOSEPH     CLEAR     69  66  90 SE5       29.87F
MOSBY          SUNNY     68  66  94 CALM      29.88F
WHITEMAN AFB   CLEAR     68  66  94 S6        29.91S
CLINTON        CLEAR     70  68  94 CALM      29.92S
SEDALIA        CLEAR     68  65  90 S7        29.93R
WARSAW         NOT AVBL
MARSHALL       CLEAR     70  68  94 S5        29.92S
CHILLICOTHE      N/A     66  64  93 CALM      29.91S
MOBERLY        CLEAR     70  66  88 S3        29.92F
KIRKSVILLE     FOG       64  63  96 CALM      29.92S VSB 1/2

$$

MOZ041-047>049-056>058-063>065-088>090-097-311000-
...EASTERN AND SOUTHERN MISSOURI...

CITY           SKY/WX    TMP DP  RH WIND       PRES   REMARKS
ST. LOUIS INTL PTCLDY    74  71  91 S5        29.94
SPIRIT OF STL  CLEAR     71  69  93 CALM      29.93S
COLUMBIA       CLEAR     67  66  97 S7        29.93S
JEFFERSON CITY CLEAR     69  67  93 E3        29.93R
MEXICO         CLEAR    N/A N/A N/A S3        29.93S
HANNIBAL       CLEAR     70  68  94 S6        29.92S
ROLLA          PTCLDY    70  69  97 S10       29.95R
LEBANON        CLEAR     70  68  94 S6        29.97S
OSAGE BEACH    CLEAR     70  64  83 S3        29.94S
SPRINGFIELD    CLEAR     70  68  93 S9        29.95S
BRANSON        CLEAR     68  68 100 CALM      29.98S
NEVADA         CLEAR     68  66  94 S6        29.93S
JOPLIN         CLEAR     73  69  87 S9        29.93S
WEST PLAINS    CLOUDY    72  68  87 SW7       30.00S

$$

IAZ060-094-KSZ022-034>040-054-083-096-NEZ052-066-093-311000-
...KANSAS...SOUTHEAST NEBRASKA AND IOWA...

CITY           SKY/WX    TMP DP  RH WIND       PRES   REMARKS
TOPEKA         CLEAR     70  66  87 CALM      29.86F
MANHATTAN      CLEAR     65  61  87 CALM      29.84S
EMPORIA        CLEAR     69  64  84 S9        29.88S
CHANUTE        CLEAR     72  69  90 S9        29.90F
WICHITA        CLEAR     72  67  84 SE9       29.86F
OMAHA          CLEAR     70  65  84 S12       29.82F
LINCOLN        CLEAR     68  63  84 S9        29.82F
FALLS CITY     CLEAR     68  65  90 SE6       29.84F
LAMONI         CLEAR     68  65  90 S7        29.89F
DES MOINES     PTCLDY    69  64  84 SE7       29.87S

$$



USA.gov is the U.S. government's official web portal to all federal, state and local government web resources and services.